SWR92 LSZH-SBGR

Flight info

Callsign SWR92
Flight time N/A
Altitude 27000
Route VEBIT T50 ROTOS Z669 ULMES DCT VADAR DCT NINTU DCT MEBAK DCT REPSI DCT LERGA DCT MINSO DCT NARAK DCT AGN DCT MAQAB DCT TIVLI DCT ELSAP DCT ZAR DCT EXEMU DCT PISUS DCT EDIMU DCT ADUXO DCT NUSGO DCT OBIBO DCT NASOS/N0490F290 DCT ANZAN DCT BLN DCT MGA DCT PIMOS DCT GALTO UN869 ADM UR975 DIDAN/N0493F300 UR975 ANITI UA302 TURUP DCT GANDO/N0496F320 DCT ERETU UN857 UTRAM DCT IREKI UZ21 KORKA/N0485F340 UZ21 VUNOX
Aircraft B77W/H-SDE1E2E3FGHIJ2J3J4J5M1RWXY/LB1D1

Departure

Time N/A
Airport Zürich Airport (LSZH)

Arrival

Time 2026-05-05 08:26
Airport São Paulo/Guarulhos–Governor André Franco Montoro International Airport (SBGR)
Time Latitude Longitude Altitude Speed Heading
2026-05-05 07:40 -19.69070 -44.15010 36211 ft 442 kts 218°
2026-05-05 07:41 -19.74056 -44.18840 36221 ft 442 kts 219°
2026-05-05 07:41 -19.79021 -44.22685 36212 ft 442 kts 219°
2026-05-05 07:42 -19.83986 -44.26532 36209 ft 441 kts 219°
2026-05-05 07:42 -19.88943 -44.30374 36218 ft 441 kts 219°
2026-05-05 07:43 -19.93898 -44.34215 36231 ft 441 kts 219°
2026-05-05 07:43 -19.98852 -44.38059 36222 ft 441 kts 219°
2026-05-05 07:44 -20.03800 -44.41901 36221 ft 440 kts 219°
2026-05-05 07:44 -20.08744 -44.45743 36213 ft 440 kts 219°
2026-05-05 07:45 -20.13680 -44.49582 36232 ft 440 kts 218°
2026-05-05 07:45 -20.18618 -44.53420 36231 ft 440 kts 218°
2026-05-05 07:46 -20.23555 -44.57256 36223 ft 439 kts 219°
2026-05-05 07:46 -20.28490 -44.61098 36234 ft 439 kts 219°
2026-05-05 07:47 -20.33397 -44.64921 36237 ft 440 kts 218°
2026-05-05 07:47 -20.38368 -44.68797 36228 ft 440 kts 218°
2026-05-05 07:48 -20.43306 -44.72651 36228 ft 440 kts 218°
2026-05-05 07:48 -20.48246 -44.76509 36233 ft 440 kts 218°
2026-05-05 07:49 -20.53178 -44.80364 36236 ft 440 kts 218°
2026-05-05 07:49 -20.58076 -44.84196 36226 ft 439 kts 218°
2026-05-05 07:50 -20.62997 -44.88051 36232 ft 439 kts 218°
2026-05-05 07:50 -20.67914 -44.91908 36231 ft 438 kts 218°
2026-05-05 07:51 -20.72824 -44.95760 36239 ft 438 kts 218°
2026-05-05 07:51 -20.77725 -44.99606 36240 ft 437 kts 218°
2026-05-05 07:52 -20.82625 -45.03452 36234 ft 437 kts 218°
2026-05-05 07:52 -20.87523 -45.07300 36232 ft 437 kts 218°
2026-05-05 07:53 -20.92416 -45.11147 36230 ft 436 kts 218°
2026-05-05 07:53 -20.97308 -45.14993 36228 ft 436 kts 218°
2026-05-05 07:54 -21.02199 -45.18845 36231 ft 436 kts 218°
2026-05-05 07:54 -21.07087 -45.22697 36229 ft 436 kts 218°
2026-05-05 07:55 -21.11976 -45.26551 36225 ft 436 kts 218°
2026-05-05 07:55 -21.16867 -45.30412 36224 ft 437 kts 218°
2026-05-05 07:56 -21.21756 -45.34276 36224 ft 437 kts 218°
2026-05-05 07:56 -21.26644 -45.38141 36238 ft 437 kts 218°
2026-05-05 07:57 -21.31535 -45.42012 36226 ft 437 kts 218°
2026-05-05 07:57 -21.36418 -45.45880 36225 ft 436 kts 218°
2026-05-05 07:58 -21.41291 -45.49743 36220 ft 435 kts 218°
2026-05-05 07:58 -21.46156 -45.53605 36226 ft 435 kts 218°
2026-05-05 07:59 -21.50984 -45.57435 36217 ft 434 kts 218°
2026-05-05 07:59 -21.55851 -45.61259 36220 ft 434 kts 218°
2026-05-05 08:00 -21.60730 -45.65086 36232 ft 434 kts 218°
2026-05-05 08:00 -21.65604 -45.68915 36228 ft 434 kts 218°
2026-05-05 08:01 -21.70470 -45.72746 36101 ft 435 kts 218°
2026-05-05 08:01 -21.72947 -45.74699 35367 ft 445 kts 218°
2026-05-05 08:01 -21.75426 -45.76653 34863 ft 440 kts 218°
2026-05-05 08:02 -21.77888 -45.78594 34332 ft 436 kts 218°
2026-05-05 08:02 -21.80321 -45.80512 33739 ft 432 kts 218°
2026-05-05 08:02 -21.82733 -45.82415 33180 ft 428 kts 218°
2026-05-05 08:02 -21.85125 -45.84303 32650 ft 424 kts 218°
2026-05-05 08:03 -21.87495 -45.86174 32133 ft 420 kts 218°
2026-05-05 08:03 -21.89841 -45.88029 31626 ft 417 kts 218°
2026-05-05 08:03 -21.92167 -45.89869 31134 ft 413 kts 218°
2026-05-05 08:03 -21.94478 -45.91696 30629 ft 411 kts 218°
2026-05-05 08:04 -21.96772 -45.93512 30099 ft 408 kts 218°
2026-05-05 08:04 -21.99048 -45.95315 29532 ft 404 kts 218°
2026-05-05 08:04 -22.01303 -45.97101 28999 ft 400 kts 218°
2026-05-05 08:04 -22.03539 -45.98872 28497 ft 396 kts 218°
2026-05-05 08:05 -22.05749 -46.00624 28000 ft 393 kts 218°
2026-05-05 08:05 -22.07940 -46.02361 27521 ft 389 kts 218°
2026-05-05 08:05 -22.10114 -46.04087 27041 ft 386 kts 218°
2026-05-05 08:05 -22.12272 -46.05799 26575 ft 384 kts 218°
2026-05-05 08:06 -22.14416 -46.07501 26103 ft 381 kts 218°
2026-05-05 08:06 -22.16543 -46.09190 25625 ft 379 kts 217°
2026-05-05 08:06 -22.18664 -46.10873 25165 ft 377 kts 217°
2026-05-05 08:06 -22.20773 -46.12544 24687 ft 376 kts 217°
2026-05-05 08:07 -22.22877 -46.14212 24251 ft 374 kts 217°
2026-05-05 08:07 -22.24970 -46.15873 23756 ft 374 kts 217°
2026-05-05 08:07 -22.27061 -46.17533 23247 ft 372 kts 217°
2026-05-05 08:07 -22.29110 -46.19160 22772 ft 369 kts 217°
2026-05-05 08:08 -22.31209 -46.20721 22287 ft 364 kts 209°
2026-05-05 08:08 -22.33571 -46.21659 21856 ft 363 kts 193°
2026-05-05 08:08 -22.36064 -46.22063 21447 ft 362 kts 190°
2026-05-05 08:08 -22.38562 -46.22415 21029 ft 362 kts 189°
2026-05-05 08:09 -22.41056 -46.22773 20571 ft 362 kts 190°
2026-05-05 08:09 -22.43552 -46.23143 20148 ft 361 kts 190°
2026-05-05 08:09 -22.46032 -46.23521 19731 ft 359 kts 190°
2026-05-05 08:09 -22.48500 -46.23904 19296 ft 358 kts 190°
2026-05-05 08:10 -22.50958 -46.24288 18867 ft 356 kts 190°
2026-05-05 08:10 -22.53409 -46.24671 18414 ft 356 kts 190°
2026-05-05 08:10 -22.55843 -46.25051 18107 ft 349 kts 190°
2026-05-05 08:10 -22.58228 -46.25420 17889 ft 344 kts 190°
2026-05-05 08:11 -22.60603 -46.25789 17690 ft 346 kts 190°
2026-05-05 08:11 -22.62999 -46.26163 17487 ft 351 kts 190°
2026-05-05 08:11 -22.65429 -46.26542 17285 ft 353 kts 190°
2026-05-05 08:11 -22.67859 -46.26919 17070 ft 352 kts 189°
2026-05-05 08:12 -22.70274 -46.27294 16873 ft 351 kts 189°
2026-05-05 08:12 -22.72685 -46.27669 16675 ft 349 kts 189°
2026-05-05 08:12 -22.75088 -46.28042 16483 ft 348 kts 189°
2026-05-05 08:12 -22.77474 -46.28427 16281 ft 344 kts 192°
2026-05-05 08:13 -22.79715 -46.29276 15963 ft 340 kts 210°
2026-05-05 08:13 -22.81758 -46.30590 15659 ft 343 kts 211°
2026-05-05 08:13 -22.83822 -46.31911 15327 ft 347 kts 211°
2026-05-05 08:13 -22.85913 -46.33233 14984 ft 348 kts 210°
2026-05-05 08:14 -22.87980 -46.34528 14637 ft 346 kts 210°
2026-05-05 08:14 -22.90056 -46.35822 14303 ft 343 kts 210°
2026-05-05 08:14 -22.92111 -46.37101 13953 ft 339 kts 210°
2026-05-05 08:14 -22.94121 -46.38351 13582 ft 335 kts 210°
2026-05-05 08:15 -22.96136 -46.39602 13154 ft 333 kts 210°
2026-05-05 08:15 -22.98151 -46.40854 12705 ft 333 kts 210°
2026-05-05 08:15 -23.00149 -46.42095 12356 ft 329 kts 210°
2026-05-05 08:15 -23.02127 -46.43323 12030 ft 326 kts 210°
2026-05-05 08:16 -23.04083 -46.44539 11696 ft 323 kts 210°
2026-05-05 08:16 -23.06032 -46.45751 11396 ft 323 kts 210°
2026-05-05 08:16 -23.07967 -46.46954 11098 ft 319 kts 210°
2026-05-05 08:16 -23.09886 -46.48149 10776 ft 317 kts 210°
2026-05-05 08:17 -23.11782 -46.49329 10468 ft 313 kts 210°
2026-05-05 08:17 -23.13665 -46.50501 10165 ft 310 kts 210°
2026-05-05 08:17 -23.15526 -46.51660 9855 ft 306 kts 210°
2026-05-05 08:17 -23.17341 -46.52791 9666 ft 297 kts 210°
2026-05-05 08:18 -23.19114 -46.53894 9507 ft 289 kts 210°
2026-05-05 08:18 -23.20838 -46.54970 9234 ft 286 kts 211°
2026-05-05 08:18 -23.22533 -46.56128 8693 ft 285 kts 214°
2026-05-05 08:18 -23.24169 -46.57304 8383 ft 281 kts 214°
2026-05-05 08:19 -23.25793 -46.58469 8099 ft 278 kts 214°
2026-05-05 08:19 -23.27398 -46.59616 7864 ft 274 kts 214°
2026-05-05 08:19 -23.28976 -46.60740 7642 ft 268 kts 214°
2026-05-05 08:19 -23.30529 -46.61844 7451 ft 265 kts 214°
2026-05-05 08:20 -23.32070 -46.62940 7267 ft 264 kts 214°
2026-05-05 08:20 -23.33610 -46.64035 7038 ft 265 kts 214°
2026-05-05 08:20 -23.35154 -46.65133 6844 ft 265 kts 214°
2026-05-05 08:20 -23.36698 -46.66230 6646 ft 265 kts 214°
2026-05-05 08:21 -23.38234 -46.67321 6436 ft 261 kts 214°
2026-05-05 08:21 -23.39739 -46.68391 6224 ft 254 kts 214°
2026-05-05 08:21 -23.41328 -46.69085 5999 ft 246 kts 185°
2026-05-05 08:21 -23.43003 -46.68793 5829 ft 250 kts 155°
2026-05-05 08:22 -23.44433 -46.67720 5569 ft 251 kts 131°
2026-05-05 08:22 -23.45444 -46.66208 5397 ft 244 kts 123°
2026-05-05 08:22 -23.46387 -46.64679 5092 ft 243 kts 123°
2026-05-05 08:22 -23.47219 -46.63118 4808 ft 234 kts 106°
2026-05-05 08:23 -23.47287 -46.61426 4615 ft 218 kts 76°
2026-05-05 08:23 -23.46895 -46.59869 4380 ft 207 kts 71°
2026-05-05 08:23 -23.46509 -46.58431 4186 ft 189 kts 71°
2026-05-05 08:23 -23.46144 -46.57080 3944 ft 184 kts 71°
2026-05-05 08:24 -23.45788 -46.55765 3772 ft 176 kts 71°
2026-05-05 08:24 -23.45457 -46.54543 3565 ft 163 kts 71°
2026-05-05 08:24 -23.45138 -46.53374 3403 ft 162 kts 70°
2026-05-05 08:24 -23.44807 -46.52212 3207 ft 159 kts 71°
2026-05-05 08:25 -23.44495 -46.51063 2969 ft 157 kts 73°
2026-05-05 08:25 -23.44201 -46.49949 2744 ft 155 kts 73°
2026-05-05 08:25 -23.43910 -46.48835 2521 ft 150 kts 73°
2026-05-05 08:25 -23.43627 -46.47784 2475 ft 129 kts 73°
2026-05-05 08:26 -23.43428 -46.47037 2473 ft 76 kts 73°
2026-05-05 08:26 -23.43316 -46.46620 2475 ft 35 kts 73°
2026-05-05 08:26 -23.43236 -46.46397 2475 ft 31 kts 58°
2026-05-05 08:26 -23.43104 -46.46245 2477 ft 24 kts 43°
2026-05-05 08:27 -23.43009 -46.46150 2472 ft 15 kts 32°
2026-05-05 08:27 -23.42942 -46.46143 2472 ft 15 kts 348°
2026-05-05 08:27 -23.42844 -46.46173 2470 ft 15 kts 344°
2026-05-05 08:27 -23.42746 -46.46203 2471 ft 15 kts 343°
2026-05-05 08:28 -23.42656 -46.46232 2472 ft 11 kts 342°
2026-05-05 08:28 -23.42625 -46.46301 2472 ft 11 kts 268°
2026-05-05 08:28 -23.42645 -46.46391 2470 ft 13 kts 253°
2026-05-05 08:28 -23.42671 -46.46483 2467 ft 13 kts 253°
2026-05-05 08:29 -23.42697 -46.46575 2469 ft 13 kts 254°
2026-05-05 08:29 -23.42721 -46.46668 2472 ft 13 kts 253°
2026-05-05 08:29 -23.42746 -46.46760 2473 ft 13 kts 253°
2026-05-05 08:30 -23.42795 -46.46945 2477 ft 13 kts 253°
2026-05-05 08:30 -23.42820 -46.47037 2472 ft 13 kts 253°
2026-05-05 08:30 -23.42844 -46.47129 2472 ft 13 kts 253°
2026-05-05 08:30 -23.42869 -46.47221 2471 ft 13 kts 253°
2026-05-05 08:31 -23.42895 -46.47316 2471 ft 13 kts 252°
2026-05-05 08:31 -23.42920 -46.47406 2471 ft 10 kts 254°
2026-05-05 08:31 -23.42908 -46.47472 2475 ft 10 kts 317°
2026-05-05 08:31 -23.42847 -46.47501 2472 ft 10 kts 339°
2026-05-05 08:32 -23.42783 -46.47523 2472 ft 10 kts 343°
2026-05-05 08:32 -23.42719 -46.47543 2477 ft 10 kts 344°
2026-05-05 08:32 -23.42659 -46.47562 2474 ft 6 kts 344°
2026-05-05 08:32 -23.42622 -46.47573 2470 ft 6 kts 344°
2026-05-05 08:33 -23.42584 -46.47584 2474 ft 6 kts 352°
2026-05-05 08:33 -23.42555 -46.47561 2475 ft 6 kts 67°
2026-05-05 08:33 -23.42544 -46.47520 2471 ft 6 kts 74°
2026-05-05 08:33 -23.42538 -46.47498 2471 ft 0 kts 74°
2026-05-05 08:34 -23.42538 -46.47497 2471 ft 0 kts 74°